Regional Weather Roundup
Issued by NWS State College, PA

Home | Current Version | Previous Version | Text Only | Print | Product List | Glossary On
Versions: 1 2 3 4 5 6 7 8 9 10 11 12 13 14 15 16 17 18 19 20 21 22 23 24 25 26 27 28 29 30 31 32 33 34 35 36 37 38 39 40 41 42 43 44 45 46 47 48 49 50
000
ASUS41 KCTP 031810
RWRCTP

REGIONAL WEATHER ROUNDUP
NATIONAL WEATHER SERVICE STATE COLLEGE PA
100 PM EST SAT DEC 03 2016

Note: "fair" indicates few or no clouds below 12,000 feet with no
significant weather and/or obstructions to visibility.

* = STATION THAT DOES NOT REPORT PRECIPITATION /E.G. RAIN...SNOW...ETC/
    THUNDER OR FOG.

PAZ002>004-007>009-013>016-020>023-029>032-031900-
WESTERN PENNSYLVANIA

CITY           SKY/WX    TMP DP  RH WIND       PRES   REMARKS
ERIE           CLOUDY    42  34  73 W12       30.21F
MEADVILLE      CLOUDY    38  32  79 W9        30.19F
FRANKLIN*        N/A     36  30  80 NW9       30.20F
NEW CASTLE     NOT AVBL
BEAVER COUNTY  CLOUDY    36  30  80 W5        30.22F
BUTLER*        CLOUDY    37  30  75 W8        30.24F
PITTSBURGH INT CLOUDY    38  30  73 W10       30.24F
PITTSBURGH     CLOUDY    36  27  69 VRB6      30.24F
INDIANA*       CLOUDY    37  32  81 NW8G16    30.21F
LATROBE        CLOUDY    37  30  75 W9        30.25F
WASHINGTON CO* CLOUDY    36  27  69 SW6       30.27S
$$

PAZ004>006-010>012-017>019-024>028-033>037-041-042-045-046-049>053-031900-
CENTRAL PENNSYLVANIA

CITY           SKY/WX    TMP DP  RH WIND       PRES   REMARKS
BRADFORD       CLOUDY    35  33  92 W10       30.11F
DUBOIS         CLOUDY    36  31  82 W13G20    30.15F
CLEARFIELD     CLOUDY    37  33  85 W7G17     30.15F
JOHNSTOWN      CLOUDY    34  29  82 W14G21    30.14F
ALTOONA        CLOUDY    40  30  67 W10       30.17F
STATE COLLEGE  CLOUDY    39  32  75 W15       30.14F
WILLIAMSPORT   CLOUDY    45  30  55 NW13      30.12F
SELINSGROVE    LGT RAIN  44  36  73 W8        30.14F
FT INDIANTOWN  CLOUDY    45  32  61 W15       30.12F
CAPITAL CITY   PTSUNNY   46  29  51 W13G30    30.14F
HARRISBURG     PTSUNNY   49  33  54 NW15G24   30.13F
YORK           CLOUDY    45  31  58 W13G22    30.15F
$$

PAZ038>040-043-044-047-048-054-055-060>062-067>071-031900-
EASTERN PENNSYLVANIA

CITY           SKY/WX    TMP DP  RH WIND       PRES   REMARKS
SCRANTON       CLOUDY    42  28  57 NW12      30.08S
MOUNT POCONO   CLOUDY    36  26  67 NW18G28   30.02R
ALLENTOWN      CLOUDY    48  27  44 NW14      30.08F
QUAKERTOWN*    CLOUDY    46  28  49 NW9       30.09F
READING        PTSUNNY   47  29  49 NW17      30.10F
LANCASTER      CLOUDY    46  34  62 NW16G26   30.13F
COATESVILLE    CLOUDY    46  32  57 NW17G23   30.12F
POTTSTOWN      MOSUNNY   47  28  47 NW9G24    30.11F
BLUE BELL      PTSUNNY   46  30  53 NW12G18   30.09F
DOYLESTOWN     PTSUNNY   49  29  46 W13G22    30.07F
WILLOW GROVE   NOT AVBL
NORTH PHILA    NOT AVBL
PHILADELPHIA   PTSUNNY   50  27  40 NW14G25   30.11F
$$




USA.gov is the U.S. government's official web portal to all federal, state and local government web resources and services.